Regional Weather Roundup
Issued by NWS

Home | Current Version | Previous Version | Text Only | Print | Product List | Glossary On
Versions: 1 2 3 4 5 6 7 8 9 10 11 12 13 14 15 16 17 18 19 20 21 22 23 24 25 26 27 28 29 30 31 32 33 34 35 36 37 38 39 40 41 42 43 44 45 46 47 48 49 50
000
ASUS45 KSLC 270410
RWRUT

UTAH REGIONAL WEATHER ROUNDUP
NATIONAL WEATHER SERVICE SALT LAKE CITY UT
1000 PM MDT THU MAR 26 2015

UTZ001>011-023>025-270500-

NORTHERN UTAH

CITY           SKY/WX    TMP DP  RH WIND       PRES   REMARKS
BRIGHAM CITY   PTCLDY    47  32  55 CALM      30.35R
HILL AFB       CLEAR     49  26  41 NE3       30.35R
LOGAN          CLEAR     47  34  60 CALM      30.34R
OGDEN          PTCLDY    50  29  44 CALM      30.34R
PROVO AIRPORT  CLEAR     48  30  49 N3        30.35R
SALT LAKE CITY PTCLDY    50  31  48 SW3       30.33R
VERNAL         CLEAR     44  23  43 CALM      30.27R
WENDOVER       CLEAR     52  27  37 W6        30.33R
HEBER CITY     PTCLDY    37  27  65 CALM      30.35R
WEST JORDAN    CLEAR     46  30  53 SW6       30.34S

$$

UTZ012>022-026-027-270500-

SOUTHERN/CENTRAL UTAH

CITY           SKY/WX    TMP DP  RH WIND       PRES   REMARKS
BLANDING       CLEAR     46  19  33 N6        30.37R
BRYCE CANYON   CLEAR     36  25  64 CALM      30.40R
CEDAR CITY     CLEAR     43  24  47 N5        30.32R
DELTA          CLEAR     51  30  45 NE3       30.33S
HANKSVILLE     CLEAR     52  16  24 CALM      30.27R
MILFORD        CLEAR     45  22  40 NW12      30.32S
MOAB/CYNLANDS  CLEAR     48  14  25 CALM      30.24R
PRICE          PTCLDY    54  20  26 NW12      30.29R
ST GEORGE      PTCLDY    63  27  25 SE10      30.21R
KANAB          CLEAR     43  27  52 NE8       30.32R

$$

REGIONAL REPORTS     COLORADO/ARIZONA

CITY           SKY/WX    TMP DP  RH WIND       PRES   REMARKS
CRAIG, CO      MOCLDY    42  26  53 CALM      30.29R
GRAND JUNCTION CLEAR     51  17  26 CALM      30.26R
RIFLE          CLEAR     48  22  35 S6        30.28R
MONTROSE       PTCLDY    45  24  43 SE12      30.32R
CORTEZ         CLEAR     41  16  36 E5        30.30R
PAGE, AZ       PTCLDY    57  20  23 CALM      30.26R
GRAND CANYON   CLEAR     32  17  54 CALM      30.36R
KINGMAN        CLEAR     54  23  30 SE10      30.21R
FLAGSTAFF      CLEAR     39  15  37 CALM      30.37R

$$

REGIONAL REPORTS    NEVADA/IDAHO/WYOMING

CITY           SKY/WX    TMP DP  RH WIND       PRES   REMARKS
LAS VEGAS, NV  CLEAR     74  23  15 SW6       30.12R
ELY            CLEAR     48  22  35 S9        30.34R
ELKO           CLEAR     51  31  46 NE3       30.30R
POCATELLO, ID  CLEAR     45  34  65 S8        30.32S
BURLEY         CLEAR     46  35  65 SW5       30.29S
EVANSTON, WY   PTCLDY    41  27  57 SW3       30.39R
ROCK SPRINGS   PTCLDY    43  28  55 W18       30.32R
KEMMERER       PTCLDY    37  32  81 NW6       30.38S WCI  33

$$



USA.gov is the U.S. government's official web portal to all federal, state and local government web resources and services.